OE3PDB-4 Weather Reports


time (UTC)temp
C
wind
direction
speed
KPH
gust
KPH
rain 1hr
cm
rain 24hr
cm
rain mn
cm
humidity
%
barometer
mb
20260507051957 15 315 0.0 0.0 0.00 0.00 0.00 58 1011.7
20260507050957 15 292 0.0 0.0 0.00 0.00 0.00 59 1011.8
20260507045957 15 315 1.6 1.6 0.00 0.00 0.00 58 1011.5
20260507044957 15 315 0.0 0.0 0.00 0.00 0.00 58 1011.3
20260507043957 15 315 0.0 3.2 0.00 0.00 0.00 59 1011.2
20260507042957 14 315 0.0 0.0 0.00 0.00 0.00 59 1011.3
20260507041957 14 270 0.0 1.6 0.00 0.00 0.00 60 1011.2
20260507040957 13 292 0.0 0.0 0.00 0.00 0.00 59 1010.9
20260507035957 14 337 0.0 8.0 0.00 0.00 0.00 59 1011.0
20260507034957 14 315 0.0 0.0 0.00 0.00 0.00 59 1010.9
20260507033957 14 270 0.0 0.0 0.00 0.00 0.00 59 1010.9
20260507032957 14 225 0.0 0.0 0.00 0.00 0.00 58 1010.9
20260507031957 14 270 0.0 3.2 0.00 0.00 0.00 58 1010.8
20260507030957 14 292 0.0 0.0 0.00 0.00 0.00 58 1010.7
20260507025957 14 292 3.2 3.2 0.00 0.00 0.00 59 1010.7
20260507024957 14 292 0.0 0.0 0.00 0.00 0.00 59 1010.5
20260507023957 15 292 0.0 0.0 0.00 0.00 0.00 59 1010.5
20260507022957 15 315 9.7 9.7 0.00 0.00 0.00 60 1010.5
20260507021957 15 315 0.0 0.0 0.00 0.00 0.00 60 1010.7
20260507020957 15 270 0.0 1.6 0.00 0.00 0.00 60 1010.5
20260507015957 15 292 0.0 0.0 0.00 0.00 0.00 60 1010.4
20260507014957 15 292 0.0 0.0 0.00 0.00 0.00 61 1010.2
20260507013958 15 337 0.0 6.4 0.00 0.00 0.00 61 1010.3
20260507012957 15 315 0.0 0.0 0.00 0.00 0.00 61 1010.2
20260507011957 15 292 0.0 0.0 0.00 0.00 0.00 61 1010.1
20260507010957 15 337 0.0 4.8 0.00 0.00 0.00 61 1010.0
20260507005957 15 292 0.0 4.8 0.00 0.00 0.00 61 1009.9
20260507004957 15 225 0.0 0.0 0.00 0.00 0.00 61 1010.0
20260507003957 15 315 0.0 1.6 0.00 0.00 0.00 61 1009.8
20260507002957 15 337 1.6 4.8 0.00 0.00 0.00 61 1009.6
20260507001957 15 315 8.0 8.0 0.00 0.00 0.00 61 1009.6
20260507000957 15 112 0.0 6.4 0.00 0.00 0.00 61 1009.6
20260506235957 16 315 0.0 3.2 0.00 0.00 0.00 61 1009.5
20260506234957 16 202 0.0 0.0 0.00 0.00 0.00 61 1009.4
20260506233957 16 315 3.2 3.2 0.00 0.00 0.00 62 1009.2
20260506232957 16 292 0.0 0.0 0.00 0.00 0.00 63 1009.3
20260506231957 16 270 1.6 1.6 0.00 0.00 0.00 63 1009.2
20260506230957 16 292 0.0 3.2 0.00 0.00 0.00 63 1009.1
20260506225957 16 315 3.2 3.2 0.00 0.00 0.00 62 1009.1
20260506224957 16 292 0.0 1.6 0.00 0.00 0.00 62 1008.9
20260506223958 16 315 6.4 6.4 0.00 0.00 0.00 60 1008.5
20260506222958 16 270 0.0 0.0 0.00 0.00 0.00 59 1008.4
20260506221958 16 315 0.0 3.2 0.00 0.00 0.00 59 1008.1
20260506220958 16 315 3.2 3.2 0.00 0.00 0.00 58 1007.9
20260506215958 16 315 1.6 1.6 0.00 0.00 0.00 58 1007.8
20260506214958 16 180 0.0 0.0 0.00 0.00 0.00 57 1007.5
20260506213958 17 180 0.0 0.0 0.00 0.00 0.00 57 1007.5
20260506212958 17 180 0.0 0.0 0.00 0.00 0.00 56 1007.2
20260506211958 17 180 0.0 0.0 0.00 0.00 0.00 56 1007.0
20260506210958 17 180 0.0 0.0 0.00 0.00 0.00 55 1006.8
20260506205958 18 180 0.0 0.0 0.00 0.00 0.00 54 1006.4
20260506204958 18 180 0.0 0.0 0.00 0.00 0.00 53 1006.4
20260506203958 18 180 0.0 0.0 0.00 0.00 0.00 53 1006.4
20260506202958 18 180 0.0 0.0 0.00 0.00 0.00 52 1006.3
20260506201958 19 180 0.0 0.0 0.00 0.00 0.00 52 1006.2
20260506200958 19 180 0.0 0.0 0.00 0.00 0.00 51 1006.2
20260506195958 20 180 0.0 0.0 0.00 0.00 0.00 51 1006.1
20260506194958 20 180 0.0 0.0 0.00 0.00 0.00 50 1005.9
20260506193958 20 180 0.0 0.0 0.00 0.00 0.00 50 1005.7
20260506192958 20 180 0.0 0.0 0.00 0.00 0.00 49 1005.7
20260506191958 20 180 0.0 0.0 0.00 0.00 0.00 49 1005.6
20260506190958 20 180 0.0 0.0 0.00 0.00 0.00 48 1005.6
20260506185958 20 180 0.0 0.0 0.00 0.00 0.00 48 1005.5
20260506184958 20 180 0.0 1.6 0.00 0.00 0.00 47 1005.2
20260506183958 20 180 3.2 3.2 0.00 0.00 0.00 47 1005.1
20260506182958 21 180 0.0 0.0 0.00 0.00 0.00 46 1005.1
20260506181958 21 202 0.0 0.0 0.00 0.00 0.00 46 1005.0
20260506180958 21 202 0.0 0.0 0.00 0.00 0.00 45 1004.7
20260506175958 21 180 0.0 0.0 0.00 0.00 0.00 45 1004.7
20260506174958 21 180 0.0 0.0 0.00 0.00 0.00 45 1004.7
20260506173958 21 180 0.0 0.0 0.00 0.00 0.00 45 1004.6
20260506172958 22 315 0.0 0.0 0.00 0.00 0.00 44 1004.7
20260506171958 22 247 0.0 0.0 0.00 0.00 0.00 43 1004.7
20260506170958 22 337 3.2 3.2 0.00 0.00 0.00 43 1004.6
20260506165958 22 180 3.2 3.2 0.00 0.00 0.00 42 1004.7
20260506164958 22 270 0.0 0.0 0.00 0.00 0.00 42 1004.8
20260506163958 23 202 1.6 1.6 0.00 0.00 0.00 42 1005.0
20260506162958 23 180 0.0 0.0 0.00 0.00 0.00 42 1004.9
20260506161958 23 180 0.0 0.0 0.00 0.00 0.00 41 1005.0
20260506160958 24 180 3.2 3.2 0.00 0.00 0.00 40 1005.1
20260506155958 25 247 0.0 3.2 0.00 0.00 0.00 39 1005.1
20260506154958 25 315 0.0 0.0 0.00 0.00 0.00 39 1005.1
20260506153958 25 337 0.0 0.0 0.00 0.00 0.00 38 1005.1
20260506152958 25 225 1.6 1.6 0.00 0.00 0.00 38 1005.1
20260506151958 25 157 3.2 3.2 0.00 0.00 0.00 37 1005.1
20260506150958 25 247 0.0 1.6 0.00 0.00 0.00 37 1005.2
20260506145958 26 315 0.0 1.6 0.00 0.00 0.00 37 1005.1
20260506144958 26 225 0.0 0.0 0.00 0.00 0.00 36 1005.1
20260506143958 26 180 1.6 3.2 0.00 0.00 0.00 36 1005.0
20260506142958 26 270 0.0 0.0 0.00 0.00 0.00 36 1005.1
20260506141958 26 180 0.0 1.6 0.00 0.00 0.00 36 1005.1
20260506140958 26 157 0.0 3.2 0.00 0.00 0.00 37 1005.2
20260506135958 26 157 0.0 0.0 0.00 0.00 0.00 36 1005.2
20260506134958 26 135 0.0 3.2 0.00 0.00 0.00 36 1005.3
20260506133958 26 180 1.6 1.6 0.00 0.00 0.00 35 1005.5
20260506132958 26 292 3.2 3.2 0.00 0.00 0.00 37 1005.6
20260506131958 25 225 0.0 0.0 0.00 0.00 0.00 37 1005.6
20260506130958 24 337 0.0 0.0 0.00 0.00 0.00 38 1005.7
20260506125958 23 292 0.0 0.0 0.00 0.00 0.00 39 1005.9
20260506124958 23 157 0.0 0.0 0.00 0.00 0.00 39 1005.9
20260506123958 23 157 0.0 3.2 0.00 0.00 0.00 39 1006.1
20260506122958 23 157 0.0 0.0 0.00 0.00 0.00 39 1006.4
20260506121958 23 180 1.6 1.6 0.00 0.00 0.00 40 1006.5
20260506120958 23 180 0.0 1.6 0.00 0.00 0.00 40 1006.8
20260506115958 23 180 4.8 4.8 0.00 0.00 0.00 39 1006.9
20260506114958 24 180 6.4 6.4 0.00 0.00 0.00 39 1006.9
20260506113958 25 180 0.0 6.4 0.00 0.00 0.00 39 1007.0
20260506112959 25 180 3.2 3.2 0.00 0.00 0.00 39 1007.2
20260506111958 25 157 6.4 6.4 0.00 0.00 0.00 40 1007.3
20260506110959 25 157 6.4 6.4 0.00 0.00 0.00 41 1007.4
20260506105959 25 157 0.0 3.2 0.00 0.00 0.00 41 1007.5
20260506104959 25 202 0.0 3.2 0.00 0.00 0.00 42 1007.7
20260506103959 24 0 0.0 0.0 0.00 0.00 0.00 42 1008.0
20260506102959 23 180 3.2 4.8 0.00 0.00 0.00 42 1008.1
20260506101959 23 292 0.0 1.6 0.00 0.00 0.00 42 1008.1
20260506100959 24 157 0.0 3.2 0.00 0.00 0.00 42 1008.2
20260506095959 23 315 0.0 1.6 0.00 0.00 0.00 43 1008.3
20260506094959 23 247 4.8 4.8 0.00 0.00 0.00 42 1008.3
20260506093959 23 202 0.0 0.0 0.00 0.00 0.00 42 1008.5
20260506092959 23 157 3.2 3.2 0.00 0.00 0.00 43 1008.5
20260506091959 23 180 0.0 0.0 0.00 0.00 0.00 44 1008.7
20260506090959 23 337 1.6 1.6 0.00 0.00 0.00 44 1008.7
20260506085959 23 157 0.0 9.7 0.00 0.00 0.00 44 1008.6
20260506084959 23 315 0.0 1.6 0.00 0.00 0.00 43 1008.8
20260506083959 23 270 0.0 0.0 0.00 0.00 0.00 45 1008.7
20260506082959 22 180 0.0 0.0 0.00 0.00 0.00 47 1008.7
20260506081959 22 157 0.0 3.2 0.00 0.00 0.00 46 1008.7
20260506080959 22 157 0.0 0.0 0.00 0.00 0.00 47 1008.9
20260506072959 21 247 0.0 0.0 0.00 0.00 0.00 52 1009.1
20260506071959 20 247 0.0 0.0 0.00 0.00 0.00 53 1009.1
20260506070959 20 292 0.0 0.0 0.00 0.00 0.00 54 1009.1
20260506061959 18 315 0.0 0.0 0.00 0.00 0.00 59 1009.5
20260506060959 17 315 0.0 0.0 0.00 0.00 0.00 62 1009.5